Weather in Okino-Klyuchi

Russia / Republic of Buryatia     50°35′42″N   107°06′21″E
temp.,
°C
wind,
m/s
gust,
m/s
humid.,
%
clouds,
%
prec.,
mm/h
press.,
hPa
HPBL,
m
8 march, mon
mon823:00−8ssw228137 0.0 101921
02:00−8ssw228068 0.0 101921
05:00−10ssw128120 0.0 101921
08:00−10s228143 0.0 102321
11:00−3sw22722 0.0 1023216
14:00−1wnw12771 0.0 1024404
17:000nne247346 0.0 1024350
20:00−6ne228222 0.0 102821
9 march, tue
tue923:00−8e11870 0.0 102721
02:00−9se11880 0.0 102721
05:00−10sse11900 0.0 102421
08:00−11sse01900 0.0 102321
11:00−4ssw23740 0.0 1019286
14:00+1sw35692 0.0 1016395
17:000wnw127769 0.0 1016119
20:00−5nw128578 0.0 102221
10 march, wed
wed1023:00−7n118767 0.0 102521
02:00−8nw008664 0.0 102821
05:00−8s228520 0.0 102921
08:00−8s128510 0.0 103021
11:00−3wnw11730 0.0 1028236
14:000sw12680 0.0 1025381
17:00+1w11680 0.0 1023222
20:00−4sse01840 0.0 102521
11 march, thu
thu1123:00−5s11850 0.0 102521
02:00−6s11850 0.0 102521
05:00−7s12860 0.0 102521
08:00−8s11880 0.0 102621
11:00−2ssw23680 0.0 1025322
14:00+3ssw36550 0.0 1022563
17:00+4ssw36590 0.0 1021468
20:00−2s34750 0.0 102335
12 march, fri
fri1223:00−3s34740 0.0 102346
02:00−3s34740 0.0 102250
05:00−4s34760 0.0 102239
08:00−4s34740 0.0 102262
11:00+4ssw512430 0.0 1017576
14:00+7ssw6124028 0.0 10151030
17:00+5wnw4754100 0.0 1015254
20:00−1n2478100 0.3 101976